Regional Weather Roundup
Issued by NWS

Home | Current Version | Previous Version | Text Only | Print | Product List | Glossary On
Versions: 1 2 3 4 5 6 7 8 9 10 11 12 13 14 15 16 17 18 19 20 21 22 23 24 25 26 27 28 29 30 31 32 33 34 35 36 37 38 39 40 41 42 43 44 45 46 47 48 49 50
000
ASUS43 KTOP 181208
RWRKS

WEATHER ROUNDUP FOR KANSAS
NATIONAL WEATHER SERVICE GOODLAND KS
700 AM CDT WED OCT 18 2017

NOTE:  "FAIR" INDICATES FEW OR NO CLOUDS BELOW 12,000 FEET WITH NO
SIGNIFICANT WEATHER AND/OR OBSTRUCTIONS TO VISIBILITY.

KSZ001>006-013>018-027>032-041>047-181300-
NORTHWEST KANSAS

CITY           SKY/WX    TMP DP  RH WIND       PRES   REMARKS
GOODLAND       CLOUDY    51  33  50 W10       29.97R
6HR MIN TEMP:  49; 6HR MAX TEMP:  58;

HAYS           CLEAR     40  38  93 S6        29.96S
HILL CITY      CLOUDY    40  38  93 CALM      29.93S
6HR MIN TEMP:  40; 6HR MAX TEMP:  58;

RUSSELL        CLEAR     45  43  93 S8        29.95R
6HR MIN TEMP:  44; 6HR MAX TEMP:  55;

$$

KSZ061>065-074>080-084>089-181300-
SOUTHWEST KANSAS

CITY           SKY/WX    TMP DP  RH WIND       PRES   REMARKS
DODGE CITY     CLOUDY    46  39  76 SW13      29.97S
6HR MIN TEMP:  43; 6HR MAX TEMP:  53;

ELKHART          N/A     46  36  68 W7          N/A
GARDEN CITY    CLOUDY    38  35  89 W5        29.97R
6HR MIN TEMP:  38; 6HR MAX TEMP:  49;

GREAT BEND     CLEAR     43  41  93 S6        29.96F
LIBERAL        CLOUDY    41  37  86 NW5       29.99S
PRATT          CLEAR     46  42  85 S10       29.97S
6HR MIN TEMP:  46; 6HR MAX TEMP:  57;

$$

KSZ066>073-081>083-090>101-181300-
SOUTHEAST KANSAS

CITY           SKY/WX    TMP DP  RH WIND       PRES   REMARKS
CHANUTE        CLEAR     49  44  83 SE7       30.09S
6HR MIN TEMP:  47; 6HR MAX TEMP:  53;

COFFEYVILLE    CLEAR     48  43  82 S6        30.09F
6HR MIN TEMP:  47; 6HR MAX TEMP:  52;

HUTCHINSON     CLEAR     49  45  86 SE9       29.99R
6HR MIN TEMP:  48; 6HR MAX TEMP:  53;

MEDICINE LODGE   N/A     48  42  80 MISG      29.98F
NEWTON         CLEAR     51  43  74 S13       30.01S
PARSONS        CLEAR     51  43  74 S7        30.10S
6HR MIN TEMP:  51; 6HR MAX TEMP:  53;

WICHITA INTL   CLEAR     54  44  69 S15       30.00F
6HR MIN TEMP:  51; 6HR MAX TEMP:  55;

WICHITA JABRA  CLEAR     51  44  77 S10       30.01S
6HR MIN TEMP:  50; 6HR MAX TEMP:  53;

WICHITA MCCONL CLEAR     52  42  70 S10       30.01F
WINFIELD       CLEAR     52  45  77 S10       30.05S
6HR MIN TEMP:  50; 6HR MAX TEMP:  54;

$$

KSZ007>012-019>026-033>040-048>060-102>105-181300-
NORTHEAST KANSAS

CITY           SKY/WX    TMP DP  RH WIND       PRES   REMARKS
CONCORDIA      CLOUDY    52  45  77 S17       29.95S
6HR MIN TEMP:  51; 6HR MAX TEMP:  56;

EMPORIA        CLEAR     50  43  77 S22G28    30.02F
6HR MIN TEMP:  49; 6HR MAX TEMP:  52;

LAWRENCE       CLEAR     48  45  89 SE6       30.05S
6HR MIN TEMP:  47; 6HR MAX TEMP:  57;

MANHATTAN      CLEAR     48  44  86 CALM      30.00S
6HR MIN TEMP:  45; 6HR MAX TEMP:  56;

MARYSVILLE     CLEAR     50  45  81 S8        29.98S
OLATHE IND     CLEAR     49  44  83 S10       30.07S
6HR MIN TEMP:  48; 6HR MAX TEMP:  53;

OLATHE EXE     CLEAR     48  44  86 S8        30.07S
6HR MIN TEMP:  48; 6HR MAX TEMP:  55;

SALINA         CLEAR     53  46  77 S12       29.97S
6HR MIN TEMP:  52; 6HR MAX TEMP:  58;

TOPEKA BILLARD CLEAR     54  46  74 S10       30.02S
6HR MIN TEMP:  54; 6HR MAX TEMP:  58;

TOPEKA FORBES  CLEAR     54  45  71 S12       30.02F
6HR MIN TEMP:  53; 6HR MAX TEMP:  57;

$$




USA.gov is the U.S. government's official web portal to all federal, state and local government web resources and services.